TimeMST,TemperatureF,Dew PointF,Humidity,Sea Level PressureIn,VisibilityMPH,Wind Direction,Wind SpeedMPH,Gust SpeedMPH,PrecipitationIn,Events,Conditions,WindDirDegrees,DateUTC
12:53 AM,34.0,14.0,44,30.22,10.0,WNW,11.5,-,N/A,,Clear,300,2013-12-17 07:53:00
1:53 AM,28.0,12.9,53,30.25,10.0,West,11.5,-,N/A,,Clear,280,2013-12-17 08:53:00
2:53 AM,26.1,12.9,58,30.27,10.0,West,6.9,-,N/A,,Clear,260,2013-12-17 09:53:00
3:53 AM,27.0,14.0,58,30.28,10.0,West,8.1,-,N/A,,Clear,270,2013-12-17 10:53:00
4:53 AM,24.1,12.9,62,30.33,10.0,WSW,8.1,-,N/A,,Clear,250,2013-12-17 11:53:00
5:53 AM,26.1,14.0,60,30.36,10.0,WSW,8.1,-,N/A,,Clear,250,2013-12-17 12:53:00
6:53 AM,24.1,12.9,62,30.39,10.0,West,6.9,-,N/A,,Clear,260,2013-12-17 13:53:00
7:53 AM,30.9,14.0,50,30.40,10.0,West,3.5,-,N/A,,Clear,260,2013-12-17 14:53:00
8:53 AM,39.9,17.1,40,30.40,10.0,NW,3.5,-,N/A,,Clear,310,2013-12-17 15:53:00
9:53 AM,46.0,19.0,34,30.38,10.0,NNW,6.9,-,N/A,,Clear,330,2013-12-17 16:53:00
10:53 AM,50.0,19.9,31,30.35,10.0,Variable,3.5,-,N/A,,Clear,0,2013-12-17 17:53:00
11:53 AM,53.1,19.0,26,30.31,10.0,West,3.5,-,N/A,,Clear,270,2013-12-17 18:53:00
12:53 PM,54.0,18.0,24,30.27,10.0,South,6.9,-,N/A,,Clear,190,2013-12-17 19:53:00
1:53 PM,55.9,18.0,23,30.26,10.0,WSW,13.8,-,N/A,,Clear,240,2013-12-17 20:53:00
2:53 PM,55.0,17.1,23,30.24,10.0,SSW,16.1,-,N/A,,Clear,210,2013-12-17 21:53:00
3:53 PM,53.1,17.1,24,30.22,10.0,SSW,12.7,-,N/A,,Clear,210,2013-12-17 22:53:00
4:53 PM,48.9,17.1,28,30.23,10.0,SSW,15.0,-,N/A,,Clear,200,2013-12-17 23:53:00
5:53 PM,46.9,16.0,29,30.21,10.0,SSW,18.4,26.5,N/A,,Clear,210,2013-12-18 00:53:00
6:53 PM,43.0,16.0,34,30.20,10.0,SSW,17.3,-,N/A,,Clear,210,2013-12-18 01:53:00
7:53 PM,41.0,16.0,36,30.17,10.0,SW,18.4,-,N/A,,Clear,220,2013-12-18 02:53:00
8:53 PM,42.1,17.1,37,30.13,10.0,SW,18.4,27.6,N/A,,Clear,220,2013-12-18 03:53:00
9:53 PM,42.1,17.1,37,30.10,10.0,SW,20.7,-,N/A,,Clear,220,2013-12-18 04:53:00
10:53 PM,42.1,18.0,38,30.06,10.0,SW,21.9,29.9,N/A,,Clear,220,2013-12-18 05:53:00
11:53 PM,39.0,17.1,41,30.03,10.0,SW,19.6,-,N/A,,Clear,230,2013-12-18 06:53:00